EW9240 Weather Reports


Display with metric or nautical units.
time (UTC)temp
F
wind
direction
speed
MPH
gust
MPH
rain 1hr
in
rain 24hr
in
rain mn
in
humidity
%
barometer
mb
20260509074538 55 265 0.0 0.0 0.00 0.00 0.00 78 1020.5
20260509073038 56 265 0.0 0.0 0.00 0.00 0.00 77 1020.6
20260509071602 57 265 0.0 0.0 0.00 0.00 0.00 75 1020.6
20260509070047 58 265 0.0 2.0 0.00 0.00 0.00 74 1020.5
20260509064520 58 274 0.0 1.0 0.00 0.00 0.00 74 1020.6
20260509063000 58 272 0.0 0.0 0.00 0.00 0.00 73 1020.4
20260509061559 59 272 0.0 2.0 0.00 0.00 0.00 72 1020.4
20260509060038 59 276 0.0 3.0 0.00 0.00 0.00 71 1020.4
20260509054527 60 295 1.0 2.0 0.00 0.00 0.00 70 1020.4
20260509053034 60 280 1.0 4.0 0.00 0.00 0.00 69 1020.4
20260509051513 61 356 0.0 4.0 0.00 0.00 0.00 67 1020.3
20260509050034 61 300 1.0 3.0 0.00 0.00 0.00 67 1020.3
20260509044602 62 290 0.0 4.0 0.00 0.00 0.00 66 1020.1
20260509043018 62 13 2.0 6.0 0.00 0.00 0.00 65 1019.9
20260509041548 62 307 1.0 7.0 0.00 0.00 0.00 64 1019.8
20260509040037 63 276 0.0 2.0 0.00 0.00 0.00 63 1019.6
20260509034525 63 276 1.0 3.0 0.00 0.00 0.00 62 1019.4
20260509033028 64 338 0.0 3.0 0.00 0.00 0.00 61 1019.3
20260509031517 64 288 1.0 4.0 0.00 0.00 0.00 60 1019.1
20260509030100 65 311 0.0 3.0 0.00 0.00 0.00 59 1019.1
20260509024538 65 289 0.0 3.0 0.00 0.00 0.00 57 1019.0
20260509023026 66 20 2.0 5.0 0.00 0.00 0.00 56 1018.8
20260509021505 65 347 1.0 4.0 0.00 0.00 0.00 56 1018.9
20260509020052 66 265 0.0 4.0 0.00 0.00 0.00 56 1018.9
20260509014529 66 291 1.0 4.0 0.00 0.00 0.00 55 1018.9
20260509013015 66 271 1.0 4.0 0.00 0.00 0.00 54 1018.9
20260509011553 66 275 3.0 7.0 0.00 0.00 0.00 53 1019.1
20260509010032 66 300 1.0 4.0 0.00 0.00 0.00 55 1019.1
20260509004535 66 8 0.0 5.0 0.00 0.00 0.00 54 1019.2
20260509003102 66 279 0.0 5.0 0.00 0.00 0.00 56 1019.1
20260509001536 65 264 2.0 7.0 0.00 0.00 0.00 55 1019.2
20260509000022 65 213 0.0 4.0 0.00 0.00 0.00 56 1019.3
20260508234506 65 275 0.0 4.0 0.00 0.00 0.00 56 1019.3
20260508233040 65 305 2.0 5.0 0.00 0.00 0.00 55 1019.3
20260508231543 65 174 0.0 4.0 0.00 0.00 0.00 57 1019.3
20260508230035 64 262 0.0 5.0 0.00 0.00 0.00 57 1019.4
20260508224502 64 298 0.0 4.0 0.00 0.00 0.00 56 1019.5
20260508223043 65 272 1.0 6.0 0.00 0.00 0.00 56 1019.6
20260508221531 64 195 0.0 4.0 0.00 0.00 0.00 57 1019.6
20260508220015 63 191 1.0 4.0 0.00 0.00 0.00 56 1019.7
20260508214553 63 283 0.0 3.0 0.00 0.00 0.00 56 1019.7
20260508213038 62 223 1.0 4.0 0.00 0.00 0.00 58 1019.8
20260508211511 62 221 2.0 6.0 0.00 0.00 0.00 57 1019.8
20260508210004 62 210 4.0 7.0 0.00 0.00 0.00 57 1019.9
20260508204555 61 213 0.0 6.0 0.00 0.00 0.00 60 1019.8
20260508203026 61 287 0.0 3.0 0.00 0.00 0.00 59 1020.0
20260508201511 61 141 1.0 10.0 0.00 0.00 0.00 60 1020.1
20260508200109 61 142 1.0 5.0 0.00 0.00 0.00 61 1020.1
20260508194549 60 218 1.0 5.0 0.00 0.00 0.00 61 1020.2
20260508193035 59 218 1.0 5.0 0.00 0.00 0.00 62 1020.1
20260508191518 59 216 0.0 3.0 0.00 0.00 0.00 62 1020.3
20260508190009 59 153 1.0 7.0 0.00 0.00 0.00 64 1020.4
20260508184634 58 120 0.0 5.0 0.00 0.00 0.00 64 1020.3
20260508183043 58 203 1.0 3.0 0.00 0.00 0.00 65 1020.2
20260508181547 57 198 0.0 5.0 0.00 0.00 0.00 67 1020.2
20260508180015 58 207 0.0 3.0 0.00 0.00 0.00 69 1020.1
20260508174600 58 212 2.0 4.0 0.00 0.00 0.00 68 1020.0
20260508173047 56 276 0.0 3.0 0.00 0.00 0.00 71 1019.8
20260508171529 56 210 1.0 5.0 0.00 0.00 0.00 69 1019.6
20260508170016 55 209 1.0 4.0 0.00 0.00 0.00 72 1019.3
20260508164605 54 113 0.0 3.0 0.00 0.00 0.00 73 1019.1
20260508163046 54 213 0.0 4.0 0.00 0.00 0.00 73 1019.4
20260508161535 54 210 0.0 4.0 0.00 0.00 0.00 74 1019.1
20260508160021 53 113 0.0 3.0 0.00 0.00 0.00 75 1019.1
20260508154507 53 112 0.0 4.0 0.00 0.00 0.00 75 1019.0
20260508153058 52 216 0.0 2.0 0.00 0.00 0.00 76 1019.0
20260508151549 51 217 0.0 2.0 0.00 0.00 0.00 78 1019.2
20260508150034 51 204 0.0 4.0 0.00 0.00 0.00 79 1019.5
20260508144541 50 208 0.0 2.0 0.00 0.00 0.00 80 1019.5
20260508143114 50 217 0.0 4.0 0.00 0.00 0.00 80 1019.5
20260508141551 50 199 0.0 6.0 0.00 0.00 0.00 79 1019.1
20260508140027 50 209 0.0 3.0 0.00 0.00 0.00 78 1018.7
20260508134510 50 210 0.0 3.0 0.00 0.00 0.00 77 1018.3
20260508133115 50 217 0.0 0.0 0.00 0.00 0.00 77 1017.9
20260508131507 50 217 0.0 0.0 0.00 0.00 0.00 77 1017.6
20260508130054 51 217 0.0 0.0 0.00 0.00 0.00 77 1017.3
20260508124542 51 206 0.0 1.0 0.00 0.00 0.00 76 1017.2
20260508123026 51 221 0.0 2.0 0.00 0.00 0.00 76 1017.1
20260508121602 51 223 0.0 3.0 0.00 0.00 0.00 76 1017.0
20260508120038 51 214 0.0 0.0 0.00 0.00 0.00 79 1016.9
20260508114556 50 310 0.0 0.0 0.00 0.00 0.00 82 1016.7
20260508113058 50 340 0.0 0.0 0.00 0.00 0.00 83 1016.5
20260508111525 49 340 0.0 0.0 0.00 0.00 0.00 83 1016.3
20260508110022 49 340 0.0 0.0 0.00 0.00 0.00 82 1016.2
20260508104600 50 340 0.0 0.0 0.00 0.00 0.00 83 1016.1
20260508103056 50 340 0.0 0.0 0.00 0.00 0.00 82 1015.9
20260508101533 49 340 0.0 0.0 0.00 0.00 0.00 83 1015.8
20260508100020 49 340 0.0 0.0 0.00 0.00 0.00 82 1015.6
20260508094606 49 340 0.0 0.0 0.00 0.00 0.00 82 1015.5
20260508093035 50 340 0.0 0.0 0.00 0.00 0.00 82 1015.4
20260508091514 50 340 0.0 0.0 0.00 0.00 0.00 81 1015.3
20260508090113 50 340 0.0 0.0 0.00 0.00 0.00 80 1015.2
20260508084546 51 340 0.0 0.0 0.00 0.00 0.00 80 1015.0
20260508083037 51 340 0.0 0.0 0.00 0.00 0.00 79 1015.0
20260508081515 52 340 0.0 0.0 0.00 0.00 0.00 78 1014.9
20260508080105 52 340 0.0 0.0 0.00 0.00 0.00 78 1014.8